Location: C�an Torras
(41.5052°N, 1.9280°E)
Time: 21:56:58
(UTC+00:00)

SAR-Lupe-4 - Pass Details

Date: 20 January 2021
Orbit: 480 x 484 km, 98.2° (Epoch: 02 March)

Event Time Altitude Azimuth Distance (km) Brightness Sun altitude
Exits shadow 18:31:03 19° 12° (NNE) 1,210 5.3 -18.1°
Maximum altitude 18:33:31 85° 286° (WNW) 489 3.5 -18.5°
Drops below altitude 10° 18:37:05 10° 196° (SSW) 1,653 6.6 -19.2°
Sets 18:39:07 0° 196° (SSW) 2,527 7.5 -19.6°
